{"data":{"norad_id":60510,"intl_designator":"2024-149AU","name":"TRANSPORTER-11 OBJECT AU","alt_names":[],"object_type":"PAYLOAD","status":"ACTIVE","operator":null,"country":"TBD","launch_date":"2024-08-16","launch_site_code":"AFWTR","launch_vehicle":null,"mission":null,"orbit_class":"UNKNOWN","rcs_meters":null,"size_class":null,"mass_kg":null,"dimensions":null,"purposes":[],"wikipedia_slug":null,"has_3d_model":false,"image_url":null,"decayed_at":null,"tle_current":{"epoch":"2026-05-25T04:25:07.212000Z","epoch_age_seconds":53101,"freshness":"FRESH","line1":"1 60510U 24149AU  26145.18411125  .00014658  00000+0  37542-3 0  9990","line2":"2 60510  97.3730 228.7335 0003832  36.0816 324.0688 15.39486163 98771","mean_motion":15.39486163,"eccentricity":0.0003832,"inclination_deg":97.373,"raan_deg":228.7335,"arg_perigee_deg":36.0816,"mean_anomaly_deg":324.0688,"bstar":0.00037542,"rev_number":9877,"period_min":93.537703333031,"perigee_km":445.01209426178,"apogee_km":450.24336034879,"semimajor_km":6825.7647273053,"source":"CELESTRAK","updated_at":"2026-05-25T13:38:02.120684Z"}}}